Probability
2 1 0 0 0 0 0 0 0 0 0 0 0 0 0 0 0 0 0 0 0 0 0 0 0 0 0 0 0 0 0 0 0 0 0 0 0 0 0 0 0 0 0
2 1 0 0 0 0 0 0 0 0 0 0 0 0 0 0 0 0 0 0 0 0 0 0 0 0 0 0 0 0 0 0 0 0 0 0 0 0 0 0 0 0 0
2 1 0 0 0 0 0 0 0 0 0 0 0 0 0 0 0 0 0 0 0 0 0 0 0 0 0 0 0 0 0 0 0 0 0 0 0 0 0 0 0 0 0
1 0 0 0 0 0 0 0 0 0 0 0 0 0 0 0 0 0 0 0 0 0 0 0 0 0 0 0 0 0 0 0 0 0 0 0 0 0 0 0 0 0 0
0 0 0 0 0 0 0 0 0 0 0 0 0 0 0 0 0 0 0 0 0 0 0 0 0 0 0 0 0 0 0 0 0 0 0 0 0 0 0 0 0 0 0
0 0 0 0 0 0 0 0 0 0 0 0 0 0 0 0 0 0 0 0 0 0 0 0 0 0 0 0 0 0 0 0 0 0 0 0 0 0 0 0 0 0 0
0 0 0 0 0 0 0 0 0 0 0 0 0 0 0 0 0 0 0 0 0 0 0 0 0 0 0 0 0 0 0 0 0 0 0 0 0 0 0 0 0 0 0
0 0 0 0 0 0 0 0 0 0 0 0 0 0 0 0 0 0 0 0 0 0 0 0 0 0 0 0 0 0 0 0 0 0 0 0 0 0 0 0 0 0 0
0 0 0 0 0 0 0 0 0 0 0 0 0 0 0 0 0 0 0 0 0 0 0 0 0 0 0 0 0 0 0 0 0 0 0 0 0 0 0 0 0 0 0
0 0 0 0 0 0 0 0 0 0 0 0 0 0 0 0 0 0 0 0 0 0 0 0 0 0 0 0 0 0 0 0 0 0 0 0 0 0 0 0 0 0 0
0 0 0 0 0 0 0 0 0 0 0 0 0 0 0 0 0 0 0 0 0 0 0 0 0 0 0 0 0 0 0 0 0 0 0 0 0 0 0 0 0 0 0
0 0 0 0 1 1 1 1 1 0 0 1 1 1 0 0 0 0 0 0 0 0 0 0 0 0 0 0 0 0 0 0 0 0 0 0 0 0 0 0 0 0 0
0 0 0 1 2 2 3 3 3 1 0 1 2 1 0 0 0 0 0 0 0 0 0 0 0 0 0 0 0 0 0 0 0 0 0 0 0 0 0 0 0 0 0
0 0 1 2 3 3 4 4 4 3 1 1 1 1 0 0 0 0 0 0 0 0 0 0 0 0 0 0 0 0 0 0 0 0 0 0 0 0 0 0 0 0 0
0 0 1 2 3 3 3 4 4 3 3 2 1 0 0 0 0 0 0 0 0 0 0 0 0 0 0 0 0 0 0 0 0 0 0 0 0 0 0 0 0 0 0
0 0 1 1 2 2 3 3 3 2 2 2 1 0 0 0 0 0 0 0 0 0 0 0 0 0 0 0 0 0 0 0 0 0 0 0 0 0 0 0 0 0 0
0 0 0 0 0 1 2 2 1 1 1 1 0 0 0 0 0 0 0 0 0 0 0 0 0 0 0 0 0 0 0 0 0 0 0 0 0 0 0 0 0 0 0
0 0 0 0 0 0 1 1 0 0 0 0 0 0 0 0 0 0 0 0 0 0 0 0 0 0 0 0 0 0 0 0 0 0 0 0 0 0 0 0 0 0 0
0 0 0 0 0 0 0 0 0 0 0 0 0 0 0 0 0 0 0 0 0 0 0 0 0 0 0 0 0 0 0 0 0 0 0 0 0 0 0 0 0 0 0
0 0 0 0 0 0 0 0 0 0 0 0 0 0 0 0 0 0 0 0 0 0 0 0 0 0 0 0 0 0 0 0 0 0 0 0 0 0 0 0 0 0 0
0 0 0 0 0 0 0 0 0 0 0 0 0 0 0 0 0 0 0 0 0 0 0 0 0 0 0 0 0 0 0 0 0 0 0 0 0 0 0 0 0 0 0
0 0 0 0 0 0 0 0 0 0 0 0 0 0 0 0 0 0 0 0 0 0 0 0 0 0 0 0 0 0 0 0 0 0 0 0 0 0 0 0 0 0 0
0 0 0 0 0 0 0 0 0 0 0 0 0 0 0 0 0 0 0 0 0 0 0 0 0 0 0 0 0 0 0 0 0 0 0 0 0 0 0 0 0 0 0
0 0 0 0 0 0 0 0 0 0 0 0 0 0 0 0 0 0 0 0 0 0 0 0 0 0 0 0 0 0 0 0 0 0 0 0 0 0 0 0 0 0 0
0 0 0 0 0 0 0 0 0 0 0 0 0 0 0 0 0 0 0 0 0 0 0 0 0 0 0 0 0 0 0 0 0 0 0 0 0 0 0 0 0 0 0
0 0 0 0 0 0 0 0 0 0 0 0 0 0 0 0 0 0 0 0 0 0 0 0 0 0 0 0 0 0 0 0 0 0 0 0 0 0 0 0 0 0 0
Wind_Speed
8 7 6 5 5 5 5 5 4 4 4 4 3 3 3 3 3 3 2 7 7 6 5 4 4 3 3 3 2 1 1 1 2 2 2 2 1 1 1 1 2 2 2
9 9 7 7 6 6 5 5 5 4 4 3 4 4 4 3 3 4 3 4 6 5 5 5 4 3 3 2 2 1 1 1 1 1 2 2 2 1 2 2 3 3 3
11 9 8 7 7 6 6 4 4 3 3 3 4 3 3 3 3 3 3 3 3 4 5 5 4 2 2 2 2 1 1 1 1 0 0 1 1 1 2 3 3 4 4
13 10 8 8 7 6 6 5 4 4 3 3 3 2 2 2 3 3 3 3 2 2 3 4 3 1 1 2 1 1 1 1 1 1 0 0 0 1 2 3 4 4 5
14 11 8 8 8 6 6 6 4 4 4 3 3 2 2 2 2 3 3 3 3 3 2 2 2 1 0 1 1 0 1 1 1 0 1 1 1 1 2 3 3 4 5
13 11 8 9 9 7 6 6 5 4 3 4 3 1 1 1 2 2 3 3 3 3 3 2 1 1 1 2 1 1 1 1 1 1 1 1 1 2 3 3 4 4 5
13 11 9 10 9 8 9 8 5 5 3 3 3 1 1 1 1 2 2 3 3 3 3 3 2 1 1 3 2 2 1 1 2 2 2 2 2 3 3 4 4 5 5
13 11 11 10 9 8 8 8 6 4 3 4 4 3 0 1 1 1 2 3 3 2 3 3 3 3 2 1 2 3 2 2 3 3 2 2 3 3 4 4 4 4 5
12 11 12 10 9 8 8 8 8 7 5 3 3 4 4 4 1 1 1 2 3 2 2 3 3 3 3 2 1 3 3 3 3 3 3 3 3 4 4 3 4 5 5
10 10 11 10 9 7 8 8 7 5 6 5 3 2 2 4 4 1 1 0 2 3 3 3 3 3 3 3 2 3 3 3 3 3 4 4 4 4 4 5 5 5 6
8 9 9 9 9 7 8 8 7 6 5 5 5 3 2 1 2 3 2 1 1 1 2 3 3 3 3 3 2 2 2 2 3 4 4 5 5 5 5 6 5 6 6
6 8 8 8 8 7 8 8 8 8 7 6 5 4 5 4 4 4 4 3 3 2 2 2 3 3 3 3 3 3 3 2 3 3 4 5 5 5 6 6 6 6 6
5 7 6 7 7 7 7 7 7 7 7 7 6 5 4 4 3 4 4 3 3 2 2 1 2 3 3 3 2 4 2 2 2 3 3 4 5 5 5 6 6 7 7
5 7 7 7 7 7 7 7 5 6 6 7 7 6 4 4 4 4 4 4 3 2 2 3 1 3 3 3 4 5 2 3 2 2 3 4 4 4 5 5 6 7 7
4 6 6 6 6 6 6 6 5 6 6 6 6 6 5 4 3 3 3 4 5 5 5 4 3 3 3 3 5 3 2 3 3 3 3 3 3 3 4 4 5 6 6
5 5 5 5 5 5 5 5 5 5 6 6 5 6 5 4 4 4 4 4 4 5 4 3 3 3 4 3 5 4 3 4 3 3 3 2 1 2 3 4 5 5 6
5 5 5 5 5 5 5 5 5 5 6 5 5 6 6 5 5 4 4 4 4 4 4 2 1 2 4 4 3 2 2 2 2 4 3 2 1 1 2 3 4 5 6
3 4 4 4 4 4 4 5 5 5 6 7 7 6 6 5 6 5 4 5 4 4 4 4 3 3 3 4 4 3 2 2 1 3 4 3 2 1 1 2 3 4 6
2 2 3 3 3 4 4 4 5 5 6 7 7 7 7 7 7 5 5 5 4 3 3 4 4 2 2 2 3 2 2 1 1 2 3 3 3 2 1 2 3 4 5
2 1 2 2 3 3 3 4 4 5 5 6 6 7 7 8 8 7 6 7 5 5 4 4 4 3 3 3 3 3 2 2 2 1 2 2 3 2 1 1 2 3 5
3 1 0 1 1 2 2 3 3 4 5 5 5 5 6 7 8 8 6 7 7 6 5 5 4 3 4 4 4 3 3 2 2 2 1 1 1 0 1 2 2 2 3
4 3 2 1 1 2 3 4 3 4 4 4 4 4 4 6 8 11 11 11 11 8 7 6 5 5 6 5 4 4 4 3 3 2 3 2 1 1 1 1 3 2 3
4 3 3 2 3 3 4 4 4 3 3 4 4 4 3 4 7 5 8 10 11 12 11 8 7 7 6 7 7 5 4 4 4 3 3 2 1 2 2 2 4 2 2
3 3 3 3 3 4 6 5 4 2 2 3 4 5 5 5 6 6 5 5 5 5 7 6 6 6 6 6 7 7 6 4 2 1 3 2 2 2 1 1 4 3 2
4 3 3 4 4 4 6 6 5 2 2 3 4 4 5 5 10 11 7 6 5 3 4 7 7 7 8 10 9 6 5 4 3 3 3 3 2 1 1 1 2 3 2
4 4 4 4 4 4 6 7 6 2 3 3 3 4 8 8 11 12 8 7 8 6 5 5 5 5 4 7 11 7 7 5 3 3 4 4 3 3 1 1 1 1 1
Wind_Direction
164 162 163 161 162 159 164 168 172 178 190 204 212 208 211 199 185 184 199 203 198 199 201 206 221 240 260 269 272 266 281 282 248 230 214 223 253 274 287 288 315 331 331
167 167 168 168 170 170 173 176 180 181 190 198 212 210 207 196 188 187 193 202 206 204 207 215 228 247 265 273 277 278 259 260 273 240 228 244 246 259 277 283 288 289 289
170 171 172 174 177 175 174 173 179 176 188 196 206 205 191 190 186 188 187 186 199 212 215 217 227 240 265 283 284 292 293 250 164 166 177 235 227 264 284 292 294 285 278
173 171 174 177 175 173 174 174 174 175 186 184 186 191 182 180 189 185 176 178 179 184 206 213 209 232 274 286 298 314 329 72 124 135 153 194 155 317 306 298 296 294 280
175 172 176 177 173 174 177 181 175 170 174 177 178 183 190 192 193 177 168 172 171 166 167 181 184 191 313 261 254 226 95 51 61 12 245 227 237 282 309 318 314 304 295
177 173 174 175 173 173 178 177 168 169 167 166 161 165 206 214 192 182 175 164 159 158 154 143 137 136 105 104 95 101 66 24 4 348 341 297 286 287 292 302 313 319 314
178 173 174 174 176 180 182 174 160 164 164 148 124 104 343 306 216 202 173 158 156 156 144 143 136 119 97 90 70 51 12 351 352 343 336 321 308 305 300 300 306 313 319
180 176 174 177 178 176 175 173 159 155 163 162 146 138 203 322 312 209 175 167 163 149 145 144 136 125 110 93 63 51 20 359 337 322 308 308 305 299 304 306 313 320 322
181 179 177 176 177 176 180 180 172 164 169 179 170 157 166 207 232 307 220 177 169 159 154 145 142 135 127 115 90 49 36 9 337 319 312 307 308 313 312 314 322 329 329
182 180 177 177 178 179 181 183 180 172 164 175 185 190 176 160 162 195 296 234 180 174 171 157 146 141 134 123 105 80 52 12 346 339 339 342 331 326 327 328 323 324 326
184 179 178 177 179 181 182 181 180 179 175 176 176 168 171 178 168 160 205 228 223 205 178 166 156 148 141 136 127 105 70 35 21 3 358 4 3 359 350 349 344 340 337
181 181 178 178 182 183 186 188 188 187 188 184 185 178 171 174 187 179 191 201 208 213 182 169 169 162 155 144 136 118 94 56 26 3 5 18 18 15 7 4 2 358 353
179 185 181 183 183 188 189 186 189 193 191 189 194 199 196 197 172 173 172 179 194 198 176 186 187 169 160 148 145 136 113 78 41 16 14 29 34 24 14 6 2 359 356
178 179 179 185 186 186 187 187 190 196 193 196 199 196 199 205 187 184 171 162 176 205 210 209 177 180 167 161 164 144 129 108 82 54 51 53 39 24 15 13 7 0 357
167 175 177 178 180 183 186 183 193 197 191 195 195 195 200 200 190 189 174 171 173 195 218 201 186 181 169 163 165 150 147 145 131 118 98 76 50 29 20 19 8 359 357
154 165 176 178 178 182 185 189 196 200 196 197 189 192 203 198 188 188 186 188 188 187 204 186 183 169 168 168 167 154 166 163 168 160 146 126 81 29 20 16 3 357 354
151 162 174 177 183 187 186 191 198 197 200 203 196 197 204 192 191 192 186 185 191 185 198 174 141 148 158 168 161 159 163 162 184 186 186 175 154 50 14 8 359 3 358
150 156 160 167 176 186 190 195 203 206 205 208 205 201 205 194 195 189 187 193 194 187 179 182 172 168 171 174 166 169 168 167 179 204 203 191 191 201 335 354 356 2 356
115 132 149 168 184 197 202 206 208 212 214 214 207 202 200 194 199 193 189 191 187 183 172 169 171 164 154 151 152 161 159 163 198 214 215 210 212 213 255 322 343 355 350
77 126 174 192 202 208 212 217 213 216 218 217 213 206 200 200 202 194 193 192 181 179 173 167 165 166 161 152 154 172 187 191 202 200 220 216 212 205 233 277 331 347 346
30 34 33 234 225 216 217 221 217 219 219 220 218 212 207 205 205 200 197 191 181 182 178 179 178 169 175 169 185 174 181 170 206 194 192 222 198 204 273 284 296 321 337
13 17 4 322 286 273 264 249 235 223 221 216 220 219 209 205 207 208 208 200 191 186 189 188 191 192 193 183 164 164 155 157 221 202 174 209 178 208 235 252 261 286 324
0 357 346 328 302 289 280 265 254 236 223 223 221 215 215 213 203 199 204 204 205 205 196 187 193 198 184 182 168 167 174 177 198 177 156 200 189 212 226 244 243 262 304
344 332 323 313 304 302 299 287 280 266 244 237 229 218 213 209 205 191 188 191 197 202 200 197 197 196 188 177 177 174 170 148 109 146 158 187 194 209 213 260 258 248 257
331 323 318 315 308 303 300 295 290 260 251 251 245 233 224 219 214 203 192 192 196 205 205 192 189 187 187 182 166 137 140 148 180 201 183 173 175 170 195 246 271 258 251
312 311 308 302 293 290 292 292 288 260 251 253 248 236 230 230 223 213 203 196 203 199 177 172 171 167 168 180 179 169 164 161 163 199 189 167 161 149 198 267 279 314 318